Middleton, WI

7:04 PM CDT on April 23, 2018 (GMT -0500)
Middleton

Weather History for KC29 - January, 2012

Change the Weather History Date:

Tuesday, January 3, 2012

  Actual Average (KMSN) Record (KMSN)
Temperature  
Mean Temperature 18 °F -  
Max Temperature 27 °F 26 °F 57 °F (1874)
Min Temperature 9 °F 9 °F -23 °F (1887)
Degree Days  
Heating Degree Days 47    
Moisture  
Dew Point 6 °F    
Average Humidity 56    
Maximum Humidity 79    
Minimum Humidity 37    
Precipitation  
Precipitation 0.00 in - - ()
Sea Level Pressure  
Sea Level Pressure 30.23 in    
Wind  
Wind Speed 8 mph (SW)    
Max Wind Speed 15 mph    
Max Gust Speed 22 mph    
Visibility 10 miles    
Events      
Averages and records for this station are not official NWS values.
T = Trace of Precipitation, MM = Missing Value Source: NWS Daily Summary

Daily Weather History Graph

Daily Weather History Graph

Search for Another Location

Airport or City:

Astronomy

Jan. 03, 2012 Rise Set
Actual Time 7:29 AM CST 4:35 PM CST
Civil Twilight 6:57 AM CST 5:07 PM CST
Nautical Twilight 6:21 AM CST 5:43 PM CST
Astronomical Twilight 5:47 AM CST 6:17 PM CST
Moon 12:25 PM CST (1/3) 2:17 AM CST (1/3)
Length of Visible Light 10h 09m
Length of Day
9h 05m
Waxing Gibbous, 73% of the Moon is Illuminated
Jan 3
Waxing Gibbous
Jan 9
Full
Jan 16
Last Quarter
Jan 23
New
Jan 30
First Quarter

Hourly Weather History & Observations

Time (CST) Temp. Windchill Dew Point Humidity Pressure Visibility Wind Dir Wind Speed Gust Speed Precip Events Conditions
12:15 AM 14.5 °F 1.1 °F 3.9 °F 63% 30.42 in 10.0 mi NNW 11.5 mph - N/A   Clear
12:35 AM 14.4 °F 1.6 °F 3.9 °F 63% 30.42 in 10.0 mi NNW 10.4 mph - N/A   Clear
12:55 AM 14.0 °F 2.9 °F 3.6 °F 63% 30.42 in 10.0 mi NNW 8.1 mph - N/A   Clear
1:15 AM 13.8 °F 6.2 °F 3.4 °F 63% 30.41 in 10.0 mi NW 4.6 mph - N/A   Clear
1:35 AM 13.3 °F 5.6 °F 3.4 °F 65% 30.40 in 10.0 mi NW 4.6 mph - N/A   Clear
1:55 AM 12.7 °F 6.7 °F 3.7 °F 67% 30.40 in 10.0 mi NW 3.5 mph - N/A   Clear
2:35 AM 11.1 °F - 3.7 °F 72% 30.39 in 10.0 mi Calm Calm - N/A   Clear
3:15 AM 10.9 °F 2.9 °F 3.4 °F 72% 30.37 in 10.0 mi WNW 4.6 mph - N/A   Clear
3:35 AM 10.4 °F -0.4 °F 3.4 °F 73% 30.37 in 10.0 mi WNW 6.9 mph - N/A   Clear
3:55 AM 10.9 °F -0.8 °F 3.7 °F 73% 30.38 in 10.0 mi WNW 8.1 mph - N/A   Clear
4:15 AM 11.7 °F 2.3 °F 3.6 °F 70% 30.38 in 10.0 mi West 5.8 mph - N/A   Clear
4:35 AM 10.6 °F 4.3 °F 3.2 °F 72% 30.37 in 10.0 mi West 3.5 mph - N/A   Clear
5:35 AM 10.0 °F 1.8 °F 3.0 °F 73% 30.38 in 10.0 mi West 4.6 mph - N/A   Clear
6:15 AM 10.2 °F - 3.2 °F 73% 30.37 in 10.0 mi Calm Calm - N/A   Clear
6:35 AM 10.4 °F - 3.2 °F 73% 30.37 in 10.0 mi Calm Calm - N/A   Clear
6:55 AM 9.9 °F 0.2 °F 3.4 °F 75% 30.37 in 10.0 mi West 5.8 mph - N/A   Clear
7:15 AM 9.7 °F 1.4 °F 3.9 °F 77% 30.36 in 10.0 mi West 4.6 mph - N/A   Clear
7:35 AM 9.5 °F - 4.3 °F 79% 30.35 in 10.0 mi Calm Calm - N/A   Clear
7:55 AM 10.4 °F - 4.3 °F 76% 30.35 in 10.0 mi Calm Calm - N/A   Clear
8:15 AM 11.5 °F - 4.3 °F 73% 30.37 in 10.0 mi Calm Calm - N/A   Clear
8:35 AM 12.9 °F - 4.6 °F 70% 30.37 in 10.0 mi Calm Calm - N/A   Clear
9:15 AM 15.6 °F 10.0 °F 5.2 °F 63% 30.37 in 10.0 mi West 3.5 mph - N/A   Clear
9:35 AM 16.9 °F 11.5 °F 4.6 °F 59% 30.37 in 10.0 mi West 3.5 mph - N/A   Clear
9:55 AM 18.1 °F 8.9 °F 4.3 °F 55% 30.35 in 10.0 mi SW 6.9 mph - N/A   Clear
10:15 AM 18.3 °F 10.2 °F 3.9 °F 53% 30.34 in 10.0 mi South 5.8 mph - N/A   Clear
10:35 AM 19.6 °F 8.9 °F 4.5 °F 52% 30.33 in 10.0 mi South 9.2 mph - N/A   Clear
10:55 AM 19.9 °F 8.6 °F 3.9 °F 50% 30.32 in 10.0 mi SSW 10.4 mph - N/A   Clear
11:15 AM 20.3 °F 9.8 °F 4.5 °F 50% 30.30 in 10.0 mi SSW 9.2 mph - N/A   Clear
11:35 AM 21.7 °F 12.3 °F 4.6 °F 48% 30.29 in 10.0 mi South 8.1 mph - N/A   Clear
11:55 AM 22.8 °F 12.2 °F 3.4 °F 43% 30.26 in 10.0 mi South 10.4 mph - N/A   Clear
12:15 PM 24.1 °F 15.2 °F 2.7 °F 40% 30.25 in 10.0 mi South 8.1 mph - N/A   Clear
12:35 PM 25.0 °F 14.8 °F 3.0 °F 39% 30.22 in 10.0 mi South 10.4 mph - N/A   Clear
12:55 PM 25.3 °F 16.0 °F 3.9 °F 40% 30.20 in 10.0 mi South 9.2 mph - N/A   Clear
1:15 PM 25.7 °F 14.6 °F 4.1 °F 40% 30.20 in 10.0 mi South 12.7 mph - N/A   Clear
1:35 PM 27.0 °F 16.1 °F 4.3 °F 38% 30.18 in 10.0 mi SSW 12.7 mph - N/A   Clear
1:55 PM 27.1 °F 18.2 °F 4.6 °F 38% 30.17 in 10.0 mi South 9.2 mph 17.3 mph N/A   Clear
2:15 PM 27.1 °F 16.9 °F 4.6 °F 38% 30.15 in 10.0 mi South 11.5 mph - N/A   Clear
2:35 PM 27.9 °F 17.8 °F 4.6 °F 37% 30.14 in 10.0 mi South 11.5 mph 18.4 mph N/A   Clear
2:55 PM 27.7 °F 17.1 °F 5.0 °F 38% 30.12 in 10.0 mi South 12.7 mph 16.1 mph N/A   Clear
3:15 PM 27.7 °F 17.6 °F 5.7 °F 39% 30.10 in 10.0 mi South 11.5 mph - N/A   Clear
3:35 PM 27.7 °F 17.1 °F 5.9 °F 40% 30.10 in 10.0 mi South 12.7 mph 18.4 mph N/A   Clear
3:55 PM 27.5 °F 16.3 °F 6.8 °F 42% 30.09 in 10.0 mi South 13.8 mph - N/A   Clear
4:15 PM 27.3 °F 15.6 °F 7.7 °F 44% 30.06 in 10.0 mi SSE 15.0 mph 19.6 mph N/A   Clear
4:35 PM 27.1 °F 15.4 °F 8.6 °F 46% 30.05 in 10.0 mi SSE 15.0 mph 20.7 mph N/A   Clear
4:55 PM 27.1 °F 16.9 °F 8.8 °F 46% 30.03 in 10.0 mi South 11.5 mph 21.9 mph N/A   Clear
5:15 PM 27.0 °F 15.2 °F 9.1 °F 47% 30.01 in 10.0 mi South 15.0 mph 19.6 mph N/A   Clear
5:35 PM 27.1 °F 16.4 °F 9.5 °F 48% 30.02 in 10.0 mi South 12.7 mph 20.7 mph N/A   Clear
5:55 PM 27.0 °F 17.3 °F 9.9 °F 49% 30.02 in 10.0 mi South 10.4 mph 19.6 mph N/A   Clear
6:15 PM 27.3 °F 16.6 °F 10.6 °F 49% 30.03 in 10.0 mi South 12.7 mph - N/A   Clear
6:35 PM 27.3 °F 16.6 °F 11.1 °F 51% 30.02 in 10.0 mi South 12.7 mph 21.9 mph N/A   Clear
6:55 PM 27.3 °F 17.7 °F 11.1 °F 51% 30.04 in 10.0 mi SSW 10.4 mph - N/A   Clear
7:15 PM 27.3 °F 16.6 °F 11.5 °F 51% 30.02 in 10.0 mi SSW 12.7 mph 17.3 mph N/A   Clear
7:35 PM 27.3 °F 16.6 °F 11.8 °F 52% 30.02 in 10.0 mi SSW 12.7 mph 18.4 mph N/A   Clear
7:55 PM 27.3 °F 17.1 °F 12.0 °F 53% 30.00 in 10.0 mi SSW 11.5 mph 16.1 mph N/A   Clear
8:15 PM 27.3 °F 17.7 °F 12.2 °F 53% 29.99 in 10.0 mi SSW 10.4 mph 17.3 mph N/A   Clear
8:35 PM 27.5 °F 19.3 °F 12.2 °F 53% 29.99 in 10.0 mi SW 8.1 mph 17.3 mph N/A   Clear
8:55 PM 27.3 °F 19.1 °F 12.0 °F 53% 30.00 in 10.0 mi SW 8.1 mph - N/A   Clear
9:15 PM 27.5 °F 17.4 °F 12.0 °F 52% 29.97 in 10.0 mi SSW 11.5 mph 16.1 mph N/A   Clear
9:35 PM 27.5 °F 18.6 °F 11.8 °F 52% 29.96 in 10.0 mi SSW 9.2 mph - N/A   Clear
9:55 PM 27.5 °F 19.3 °F 11.7 °F 51% 29.96 in 10.0 mi SW 8.1 mph - N/A   Clear
10:15 PM 27.7 °F 19.6 °F 11.7 °F 51% 29.95 in 10.0 mi SSW 8.1 mph - N/A   Clear
10:35 PM 27.7 °F 19.6 °F 11.5 °F 51% 29.94 in 10.0 mi SSW 8.1 mph - N/A   Clear
10:55 PM 28.0 °F 20.0 °F 11.3 °F 50% 29.93 in 10.0 mi SSW 8.1 mph - N/A   Clear
11:15 PM 28.2 °F 21.0 °F 11.5 °F 50% 29.93 in 10.0 mi SSW 6.9 mph - N/A   Clear
11:35 PM 28.4 °F 21.2 °F 11.3 °F 49% 29.95 in 10.0 mi WSW 6.9 mph - N/A   Clear
11:55 PM 28.4 °F 24.6 °F 11.1 °F 48% 29.95 in 10.0 mi SW 3.5 mph - N/A   Clear